Home   Weather   United Kingdom   Glasgow   Past weeks
Flag for United Kingdom

Past Weather in Glasgow, Scotland, United Kingdom — Yesterday and Last 2 Weeks

Currently: 61 °F. Clear. (Weather station: Glasgow Airport, United Kingdom). See more current weather

Past Weather in Glasgow — Graph

°F

Glasgow Temperature Yesterday

Maximum temperature yesterday: 64 °F (at 1:20 pm)
Minimum temperature yesterday: 50 °F (at 2:20 am)
Average temperature yesterday: 57 °F

High & Low Weather Summary for the Past Weeks

 TemperatureHumidityPressure
High66 °F (Jun 17, 3:20 pm)100% (Jun 14, 12:20 am)30.18 "Hg (Jun 14, 12:20 am)
Low37 °F (Jun 10, 3:20 am)45% (Jun 9, 3:50 pm)29.33 "Hg (Jun 14, 1:50 am)
Average53 °F75%29.83 "Hg
* Reported Jun 5 7:20 pm — Jun 20 7:50 pm, Glasgow. Weather by CustomWeather, © 2024

Note: Actual official high and low records may vary slightly from our data, if they occured in-between our weather recording intervals... More about our weather records

Glasgow Weather History for the Previous 24 Hours

Scroll right to see more
 ConditionsComfort  
Time TempWeatherWind HumidityBarometerVisibility
7:50 pm
Thu, Jun 20
63 °FClear.10 mph68%29.98 "HgN/A
7:20 pm63 °FClear.13 mph68%29.98 "HgN/A
6:50 pm64 °FClear.12 mph64%29.98 "HgN/A
6:20 pm66 °FClear.10 mph56%30.01 "HgN/A
5:50 pm66 °FClear.10 mph56%30.01 "HgN/A
5:20 pm66 °FPassing clouds.13 mph60%30.01 "HgN/A
4:50 pm66 °FBroken clouds.15 mph64%30.04 "HgN/A
4:20 pm66 °FBroken clouds.14 mph64%30.04 "HgN/A
3:50 pm64 °FPartly sunny.13 mph64%30.04 "HgN/A
3:20 pm64 °FPartly sunny.10 mph64%30.04 "HgN/A
2:50 pm64 °FBroken clouds.9 mph68%30.07 "HgN/A
2:20 pm63 °FBroken clouds.10 mph73%30.07 "HgN/A
1:50 pm61 °FMostly cloudy.9 mph77%30.07 "HgN/A
1:20 pm61 °FMostly cloudy.12 mph77%30.09 "HgN/A
12:50 pm59 °FPartly sunny.13 mph82%30.09 "HgN/A
12:20 pm59 °FPartly sunny.14 mph82%30.09 "HgN/A
11:50 am59 °FMore clouds than sun.14 mph82%30.09 "HgN/A
11:20 am59 °FMore clouds than sun.13 mph77%30.09 "HgN/A
10:50 am59 °FMostly cloudy.10 mph77%30.09 "HgN/A
9:50 am59 °FMostly cloudy.8 mph77%30.09 "HgN/A
9:20 am57 °FMostly cloudy.8 mph82%30.09 "HgN/A
8:50 am57 °FMostly cloudy.8 mph82%30.12 "HgN/A
8:20 am55 °FPartly sunny.8 mph88%30.12 "HgN/A
7:50 am55 °FOvercast.8 mph88%30.12 "HgN/A
7:20 am55 °FOvercast.10 mph88%30.12 "HgN/A
6:50 am54 °FCloudy.10 mph94%30.12 "HgN/A
6:20 am54 °FMostly cloudy.10 mph94%30.12 "Hg4 mi
5:50 am54 °FOvercast.9 mph94%30.12 "Hg4 mi
5:20 am54 °FOvercast.12 mph94%30.12 "Hg5 mi
4:50 am54 °FLow clouds.12 mph88%30.12 "Hg5 mi
4:20 am54 °FLow clouds.10 mph88%30.12 "HgN/A
3:50 am54 °FOvercast.9 mph88%30.12 "HgN/A
3:20 am54 °FOvercast.12 mph88%30.12 "HgN/A
2:50 am54 °FMostly cloudy.10 mph88%30.12 "HgN/A
2:20 am54 °FPassing clouds.10 mph82%30.12 "HgN/A
1:50 am52 °FPartly cloudy.12 mph88%30.15 "HgN/A
1:20 am52 °FPassing clouds.9 mph88%30.15 "HgN/A
12:50 am52 °FPassing clouds.9 mph88%30.15 "HgN/A
12:20 am52 °FPassing clouds.10 mph88%30.15 "HgN/A
11:50 pm
Wed, Jun 19
54 °FOvercast.13 mph82%30.15 "HgN/A
11:20 pm54 °FPassing clouds.10 mph82%30.15 "HgN/A
10:20 pm54 °FPassing clouds.9 mph77%30.15 "HgN/A
9:20 pm55 °FClear.10 mph77%30.15 "HgN/A
Weather by CustomWeather, © 2024

See weather overview